2022/07/22 23:32:21+0000,-35.26,-47.47,-33.58,-49.73,-54.29,-57.33
2022/07/22 23:33:13+0000,-35.90,-48.78,-34.15,-49.77,-54.42,-56.35
2022/07/22 23:34:05+0000,-36.18,-48.75,-33.97,-50.72,-54.90,-56.52
2022/07/22 23:34:57+0000,-36.46,-48.56,-34.61,-49.58,-54.94,-56.58
2022/07/22 23:35:49+0000,-36.30,-48.09,-34.94,-50.63,-54.62,-56.66
2022/07/22 23:36:41+0000,-35.82,-47.59,-34.59,-49.97,-54.58,-56.36
2022/07/22 23:37:33+0000,-35.87,-48.19,-34.68,-51.34,-54.49,-56.40
2022/07/22 23:38:25+0000,-35.78,-48.18,-34.89,-50.98,-54.67,-56.32
2022/07/22 23:39:17+0000,-37.24,-47.86,-34.79,-49.54,-54.42,-56.12
2022/07/22 23:40:09+0000,-36.97,-47.79,-34.84,-50.40,-54.65,-56.64
2022/07/22 23:41:13+0000,-36.86,-47.29,-35.51,-49.30,-54.11,-55.37
2022/07/22 23:42:05+0000,-35.79,-48.09,-35.16,-50.38,-54.59,-56.36
2022/07/22 23:42:57+0000,-35.75,-46.93,-34.64,-50.58,-54.63,-56.42
2022/07/22 23:43:49+0000,-36.19,-46.88,-34.82,-51.04,-54.11,-55.91
2022/07/22 23:44:41+0000,-36.14,-47.78,-34.32,-50.25,-54.30,-56.00
2022/07/22 23:45:33+0000,-36.65,-47.46,-34.88,-50.58,-54.19,-56.27
2022/07/22 23:46:25+0000,-36.20,-46.55,-34.13,-50.34,-54.66,-56.14
2022/07/22 23:47:17+0000,-36.72,-46.57,-33.81,-49.71,-54.73,-56.59
2022/07/22 23:48:09+0000,-35.83,-48.26,-34.06,-49.65,-54.23,-56.55
2022/07/22 23:49:01+0000,-35.35,-46.92,-34.05,-50.14,-54.95,-56.23
2022/07/22 23:49:53+0000,-35.61,-47.93,-33.57,-50.13,-54.44,-56.84
2022/07/22 23:50:45+0000,-35.23,-47.90,-33.83,-50.12,-54.78,-56.02
2022/07/22 23:51:44+0000,-35.31,-47.12,-33.76,-50.22,-54.33,-56.33
2022/07/22 23:52:37+0000,-35.68,-47.52,-33.82,-50.06,-54.01,-55.74
2022/07/22 23:53:29+0000,-36.14,-48.39,-33.55,-50.38,-55.37,-56.21
2022/07/22 23:54:21+0000,-35.47,-48.03,-34.67,-51.98,-54.79,-55.86
2022/07/22 23:55:13+0000,-36.73,-48.40,-34.11,-49.94,-54.98,-56.28
2022/07/22 23:56:05+0000,-35.52,-47.40,-34.32,-51.10,-55.09,-56.64
2022/07/22 23:56:57+0000,-35.62,-47.92,-34.65,-50.54,-55.29,-56.73
2022/07/22 23:57:49+0000,-35.87,-47.78,-34.58,-49.80,-55.32,-56.65
2022/07/22 23:58:41+0000,-35.28,-48.00,-34.44,-50.73,-55.67,-56.42
2022/07/22 23:59:33+0000,-37.20,-47.70,-33.75,-50.56,-55.69,-56.46
2022/07/23 00:00:25+0000,-36.62,-47.85,-34.06,-49.99,-55.96,-56.23
2022/07/23 00:01:28+0000,-36.65,-47.49,-34.78,-50.27,-54.81,-56.87
2022/07/23 00:02:20+0000,-36.07,-47.66,-34.55,-48.86,-55.14,-56.07
2022/07/23 00:03:12+0000,-36.11,-47.78,-34.96,-49.78,-54.69,-56.55
2022/07/23 00:04:04+0000,-35.69,-47.95,-34.86,-50.89,-54.45,-56.62
2022/07/23 00:04:56+0000,-35.72,-47.59,-35.31,-50.65,-55.24,-56.66
2022/07/23 00:05:48+0000,-36.18,-45.96,-35.32,-51.48,-54.96,-56.73
2022/07/23 00:06:40+0000,-36.24,-45.95,-34.62,-51.16,-55.86,-56.66
2022/07/23 00:07:32+0000,-35.96,-47.40,-34.32,-50.68,-54.97,-56.56
2022/07/23 00:08:24+0000,-36.50,-46.35,-34.75,-50.81,-54.94,-56.55
2022/07/23 00:09:16+0000,-35.96,-46.61,-34.43,-49.96,-54.68,-56.95
2022/07/23 00:10:08+0000,-36.07,-47.12,-34.63,-50.46,-54.91,-57.05
2022/07/23 00:11:07+0000,-36.05,-48.23,-34.05,-50.11,-56.11,-56.70
2022/07/23 00:11:59+0000,-36.73,-47.74,-34.62,-50.52,-54.17,-56.86
2022/07/23 00:12:51+0000,-36.89,-47.76,-34.31,-50.50,-54.31,-57.11
2022/07/23 00:13:43+0000,-36.48,-48.81,-34.45,-50.50,-53.95,-56.28
2022/07/23 00:14:35+0000,-36.33,-48.56,-34.59,-49.56,-53.82,-56.76
2022/07/23 00:15:27+0000,-36.22,-46.80,-35.02,-50.79,-53.71,-56.44
2022/07/23 00:16:20+0000,-35.98,-48.02,-34.61,-51.20,-54.61,-56.06
2022/07/23 00:17:12+0000,-35.45,-48.72,-35.12,-50.11,-53.79,-11.40
2022/07/23 00:18:04+0000,-36.66,-48.50,-34.30,-51.12,-53.51,-11.86
2022/07/23 00:18:56+0000,-35.89,-47.75,-35.10,-47.63,-53.62,-55.67
2022/07/23 00:19:48+0000,-36.00,-48.43,-34.69,-50.92,-54.05,-55.93
2022/07/23 00:20:40+0000,-36.53,-47.78,-34.66,-49.52,-53.91,-11.39
2022/07/23 00:21:40+0000,-36.89,-47.57,-34.43,-48.89,-53.72,-11.26
2022/07/23 00:22:32+0000,-36.98,-47.93,-34.48,-47.36,-53.61,-55.93
2022/07/23 00:23:24+0000,-36.57,-48.45,-34.80,-48.28,-53.29,-55.66
2022/07/23 00:24:16+0000,-36.03,-47.86,-34.92,-50.15,-53.18,-56.54
2022/07/23 00:25:08+0000,-36.70,-47.01,-34.86,-49.62,-53.30,-11.11
2022/07/23 00:26:00+0000,-36.43,-48.64,-34.89,-47.36,-53.54,-56.14
2022/07/23 00:26:52+0000,-36.24,-45.84,-34.47,-50.52,-53.70,-55.79
2022/07/23 00:27:44+0000,-36.18,-47.13,-34.55,-48.11,-53.56,-11.25
2022/07/23 00:28:36+0000,-36.74,-47.64,-35.03,-48.74,-53.19,-11.93
2022/07/23 00:29:28+0000,-36.69,-47.19,-35.07,-50.93,-54.24,-56.03
2022/07/23 00:30:20+0000,-36.82,-47.06,-34.05,-51.23,-53.38,-56.06
2022/07/23 00:31:20+0000,-36.44,-48.49,-35.15,-51.47,-53.65,-56.29
2022/07/23 00:32:12+0000,-36.84,-47.20,-34.80,-50.24,-53.77,-56.36
2022/07/23 00:33:04+0000,-36.53,-48.03,-34.34,-50.83,-53.24,-56.20
2022/07/23 00:33:56+0000,-37.61,-47.25,-34.77,-50.21,-53.83,-56.30
2022/07/23 00:34:48+0000,-36.64,-46.21,-34.65,-50.83,-53.85,-56.29
2022/07/23 00:35:40+0000,-36.50,-47.58,-35.05,-50.22,-53.71,-56.25
2022/07/23 00:36:32+0000,-36.57,-46.61,-34.67,-47.35,-53.70,-55.59
2022/07/23 00:37:24+0000,-36.90,-46.46,-34.28,-47.99,-52.46,-56.08
2022/07/23 00:38:16+0000,-37.32,-48.00,-34.67,-51.01,-53.47,-56.12
2022/07/23 00:39:08+0000,-36.46,-46.19,-34.78,-51.35,-53.43,-56.19
2022/07/23 00:40:00+0000,-36.58,-46.48,-34.82,-47.27,-53.27,-56.24
2022/07/23 00:40:58+0000,-37.08,-46.85,-34.49,-48.13,-53.74,-56.01
2022/07/23 00:41:50+0000,-37.51,-47.24,-34.89,-51.19,-53.75,-56.30
2022/07/23 00:42:42+0000,-37.06,-46.81,-34.64,-50.84,-53.80,-56.51
2022/07/23 00:43:34+0000,-37.01,-47.01,-34.34,-50.94,-53.02,-56.22
2022/07/23 00:44:26+0000,-37.06,-47.17,-34.48,-47.42,-53.75,-55.98
2022/07/23 00:45:18+0000,-37.33,-47.92,-34.47,-51.51,-53.69,-56.38
2022/07/23 00:46:10+0000,-36.37,-47.67,-34.13,-50.14,-54.24,-56.05
2022/07/23 00:47:02+0000,-36.11,-47.43,-34.27,-47.29,-53.24,-56.59
2022/07/23 00:47:54+0000,-36.84,-46.24,-34.74,-51.22,-53.46,-56.62
2022/07/23 00:48:46+0000,-37.43,-46.76,-34.84,-50.32,-54.23,-56.01
2022/07/23 00:49:39+0000,-37.38,-47.06,-35.32,-50.34,-53.86,-56.13
2022/07/23 00:50:31+0000,-37.02,-46.57,-34.24,-47.56,-53.84,-56.44
2022/07/23 00:51:33+0000,-37.17,-47.81,-34.57,-47.67,-52.68,-56.29
2022/07/23 00:52:25+0000,-36.62,-48.00,-34.64,-47.97,-53.99,-56.18
2022/07/23 00:53:17+0000,-36.78,-47.84,-34.34,-50.42,-53.35,-56.04
2022/07/23 00:54:09+0000,-37.54,-47.66,-34.33,-50.88,-53.12,-56.38
2022/07/23 00:55:01+0000,-37.36,-46.20,-34.23,-47.47,-52.97,-56.63
2022/07/23 00:55:53+0000,-37.65,-47.43,-33.94,-45.39,-53.33,-55.80
2022/07/23 00:56:45+0000,-36.53,-48.07,-34.96,-50.29,-53.89,-56.50
2022/07/23 00:57:37+0000,-36.73,-47.77,-34.36,-50.41,-53.04,-56.60
2022/07/23 00:58:29+0000,-36.25,-46.53,-34.79,-47.62,-53.43,-56.54
2022/07/23 00:59:21+0000,-37.33,-46.95,-34.35,-47.52,-53.85,-56.39
2022/07/23 01:00:13+0000,-38.24,-46.86,-34.47,-50.94,-53.88,-56.64
2022/07/23 01:01:13+0000,-37.86,-47.40,-34.25,-50.32,-53.82,-56.18
2022/07/23 01:02:05+0000,-37.90,-48.03,-34.78,-50.54,-53.39,-56.30
2022/07/23 01:02:57+0000,-38.31,-46.78,-34.16,-47.52,-53.46,-56.51
2022/07/23 01:03:49+0000,-37.72,-47.77,-34.92,-47.28,-53.30,-56.06
2022/07/23 01:04:41+0000,-37.96,-47.61,-34.70,-50.40,-53.40,-56.50
2022/07/23 01:05:33+0000,-37.81,-46.22,-34.83,-50.61,-54.12,-56.49
2022/07/23 01:06:25+0000,-38.08,-46.58,-34.88,-47.29,-53.33,-56.54
2022/07/23 01:07:17+0000,-38.73,-47.08,-34.80,-51.20,-54.10,-56.94
2022/07/23 01:08:10+0000,-37.74,-46.44,-34.49,-49.87,-54.03,-56.26
2022/07/23 01:09:02+0000,-37.81,-47.70,-35.13,-47.50,-53.52,-55.88
2022/07/23 01:09:54+0000,-37.65,-46.87,-34.60,-50.53,-53.40,-56.51
2022/07/23 01:10:46+0000,-38.39,-45.84,-34.66,-46.78,-53.93,-56.13
2022/07/23 01:11:45+0000,-38.01,-47.66,-34.54,-47.47,-54.18,-56.72
2022/07/23 01:12:37+0000,-38.15,-49.13,-34.26,-47.00,-54.08,-56.42
2022/07/23 01:13:29+0000,-37.56,-48.62,-34.48,-50.46,-54.95,-56.55
2022/07/23 01:14:21+0000,-37.90,-49.23,-34.35,-49.86,-54.88,-56.15
2022/07/23 01:15:13+0000,-37.43,-47.84,-34.94,-47.38,-54.54,-56.30
2022/07/23 01:16:05+0000,-37.74,-48.61,-35.89,-47.72,-54.47,-56.17
2022/07/23 01:16:57+0000,-37.93,-48.42,-34.18,-50.48,-54.42,-56.54
2022/07/23 01:17:49+0000,-37.75,-48.83,-34.70,-51.93,-54.87,-56.50
2022/07/23 01:18:41+0000,-36.61,-46.24,-35.19,-47.72,-54.28,-56.50
2022/07/23 01:19:33+0000,-36.40,-48.84,-35.67,-51.23,-54.71,-56.55
2022/07/23 01:20:25+0000,-36.21,-48.48,-34.54,-50.06,-54.76,-56.63
2022/07/23 01:21:25+0000,-37.26,-46.90,-34.57,-51.05,-55.14,-56.66
2022/07/23 01:22:17+0000,-37.71,-45.82,-34.48,-50.32,-54.67,-56.72
2022/07/23 01:23:09+0000,-36.89,-46.80,-35.32,-47.57,-55.24,-56.60
2022/07/23 01:24:01+0000,-37.57,-45.94,-34.65,-50.01,-55.80,-56.64
2022/07/23 01:24:54+0000,-37.95,-46.70,-33.76,-50.50,-54.63,-57.02
2022/07/23 01:25:46+0000,-38.25,-46.47,-35.12,-49.75,-54.48,-56.51
2022/07/23 01:26:38+0000,-38.00,-46.59,-35.07,-47.49,-54.71,-55.81
2022/07/23 01:27:30+0000,-37.88,-45.48,-34.69,-50.37,-55.33,-56.73
2022/07/23 01:28:22+0000,-38.16,-47.40,-34.92,-49.79,-54.31,-56.05
2022/07/23 01:29:14+0000,-37.94,-45.77,-34.89,-47.24,-55.01,-56.21
2022/07/23 01:30:06+0000,-37.69,-46.24,-34.79,-47.86,-54.18,-56.63
2022/07/23 01:31:05+0000,-38.30,-45.70,-35.20,-50.63,-54.02,-55.84
2022/07/23 01:31:57+0000,-38.25,-46.66,-35.71,-49.97,-54.51,-56.60
2022/07/23 01:32:49+0000,-38.04,-45.31,-34.31,-50.23,-54.43,-56.42
2022/07/23 01:33:41+0000,-37.86,-45.79,-35.53,-47.46,-54.12,-56.99
2022/07/23 01:34:33+0000,-37.94,-45.83,-35.61,-49.55,-54.55,-56.90
2022/07/23 01:35:25+0000,-38.10,-46.36,-34.77,-49.57,-54.10,-56.26
2022/07/23 01:36:17+0000,-38.49,-46.38,-34.87,-46.85,-54.19,-57.12
2022/07/23 01:37:09+0000,-38.63,-45.52,-35.84,-47.32,-54.42,-56.49
2022/07/23 01:38:01+0000,-38.61,-45.51,-35.06,-50.38,-54.06,-56.85
2022/07/23 01:38:53+0000,-37.73,-46.50,-35.63,-50.37,-54.06,-56.72
2022/07/23 01:39:45+0000,-37.88,-45.69,-34.95,-46.66,-54.40,-55.94
2022/07/23 01:40:37+0000,-38.47,-46.15,-35.38,-47.12,-54.14,-56.49
2022/07/23 01:41:37+0000,-37.40,-46.41,-35.33,-46.64,-54.66,-56.56
2022/07/23 01:42:29+0000,-37.60,-45.15,-35.24,-50.43,-54.41,-56.45
2022/07/23 01:43:21+0000,-38.08,-45.75,-35.10,-51.03,-54.34,-56.46
2022/07/23 01:44:13+0000,-38.26,-45.06,-35.29,-46.90,-53.95,-56.44
2022/07/23 01:45:05+0000,-37.93,-46.27,-34.46,-50.59,-53.25,-55.92
2022/07/23 01:45:57+0000,-37.88,-46.66,-34.64,-50.08,-54.18,-56.39
2022/07/23 01:46:49+0000,-37.46,-46.87,-35.58,-50.31,-54.40,-56.69
2022/07/23 01:47:41+0000,-37.55,-46.08,-35.18,-50.28,-54.27,-56.37
2022/07/23 01:48:33+0000,-37.39,-47.39,-34.81,-49.45,-54.61,-56.72
2022/07/23 01:49:25+0000,-37.97,-46.49,-35.55,-50.04,-54.46,-56.30
2022/07/23 01:50:17+0000,-37.47,-46.32,-35.14,-47.00,-53.79,-56.16
2022/07/23 01:51:16+0000,-37.00,-46.10,-35.28,-46.54,-54.12,-56.65
2022/07/23 01:52:08+0000,-37.93,-46.37,-35.65,-46.99,-54.22,-56.11
2022/07/23 01:53:00+0000,-37.12,-46.17,-36.12,-48.98,-53.90,-56.08
2022/07/23 01:53:52+0000,-37.87,-46.09,-34.72,-50.44,-53.86,-56.41
2022/07/23 01:54:44+0000,-38.20,-46.14,-35.35,-46.75,-53.85,-56.06
2022/07/23 01:55:36+0000,-37.50,-46.50,-35.01,-49.64,-53.67,-56.18
2022/07/23 01:56:28+0000,-38.05,-45.14,-35.38,-49.76,-53.83,-55.78
2022/07/23 01:57:20+0000,-38.11,-45.67,-34.84,-50.52,-53.28,-55.78
2022/07/23 01:58:12+0000,-38.43,-45.84,-36.01,-49.46,-53.20,-56.04
2022/07/23 01:59:04+0000,-38.44,-45.45,-35.27,-50.39,-53.98,-56.09
2022/07/23 01:59:57+0000,-37.76,-45.13,-35.70,-49.84,-53.98,-56.49
2022/07/23 02:00:49+0000,-37.64,-45.86,-35.09,-49.32,-53.24,-55.85
2022/07/23 02:01:49+0000,-37.63,-45.30,-35.05,-50.34,-54.54,-56.32
2022/07/23 02:02:41+0000,-37.90,-45.24,-35.65,-49.51,-54.29,-55.85
2022/07/23 02:03:33+0000,-37.60,-44.94,-35.13,-50.31,-54.28,-56.30
2022/07/23 02:04:25+0000,-38.22,-46.00,-35.23,-49.96,-54.47,-56.78
2022/07/23 02:05:17+0000,-37.44,-46.42,-35.35,-50.23,-53.72,-56.44
2022/07/23 02:06:09+0000,-37.30,-45.13,-35.25,-49.71,-54.04,-55.98
2022/07/23 02:07:01+0000,-37.19,-44.71,-35.63,-48.75,-54.28,-56.17
2022/07/23 02:07:53+0000,-38.17,-45.79,-35.46,-49.66,-54.53,-55.89
2022/07/23 02:08:45+0000,-37.69,-45.66,-35.88,-48.11,-55.20,-56.21
2022/07/23 02:09:37+0000,-36.96,-47.51,-36.00,-48.53,-55.27,-55.80
2022/07/23 02:10:30+0000,-38.01,-45.12,-35.49,-49.53,-54.95,-56.49
2022/07/23 02:11:29+0000,-38.16,-45.87,-35.39,-49.89,-54.52,-55.51
2022/07/23 02:12:21+0000,-37.10,-45.63,-35.14,-48.80,-54.80,-56.16
2022/07/23 02:13:13+0000,-37.68,-44.32,-35.84,-49.45,-54.81,-56.76
2022/07/23 02:14:05+0000,-36.50,-46.22,-35.82,-49.29,-54.71,-56.99
2022/07/23 02:14:57+0000,-36.99,-44.37,-35.25,-49.11,-54.21,-56.31
2022/07/23 02:15:49+0000,-37.79,-44.33,-35.92,-49.59,-55.28,-56.12
2022/07/23 02:16:41+0000,-37.23,-44.44,-35.76,-48.86,-54.06,-55.88
2022/07/23 02:17:33+0000,-36.77,-44.47,-35.55,-49.74,-53.33,-56.77
2022/07/23 02:18:25+0000,-36.54,-45.04,-35.85,-48.76,-53.80,-56.30
2022/07/23 02:19:17+0000,-37.46,-44.06,-35.66,-49.59,-54.61,-56.27
2022/07/23 02:20:10+0000,-37.67,-45.34,-35.68,-48.32,-54.45,-55.63
2022/07/23 02:21:09+0000,-36.91,-45.00,-35.55,-48.78,-54.07,-56.00
2022/07/23 02:22:01+0000,-37.17,-44.63,-35.26,-48.73,-53.53,-56.21
2022/07/23 02:22:53+0000,-37.19,-45.38,-35.94,-48.77,-53.61,-56.41
2022/07/23 02:23:45+0000,-37.25,-45.09,-35.52,-47.89,-53.95,-56.74
2022/07/23 02:24:37+0000,-36.52,-45.83,-35.30,-48.22,-53.86,-56.61
2022/07/23 02:25:29+0000,-36.60,-45.42,-35.53,-49.04,-53.68,-56.27
2022/07/23 02:26:21+0000,-36.20,-45.79,-35.74,-48.74,-53.37,-56.39
2022/07/23 02:27:13+0000,-36.45,-44.80,-35.45,-47.52,-53.49,-56.71
2022/07/23 02:28:05+0000,-37.55,-45.97,-35.67,-49.26,-53.94,-56.60
2022/07/23 02:28:57+0000,-36.11,-44.53,-35.73,-49.06,-54.35,-56.00
2022/07/23 02:29:50+0000,-35.85,-44.70,-35.90,-49.89,-54.19,-56.01
2022/07/23 02:30:42+0000,-36.52,-44.65,-35.64,-48.32,-54.12,-56.17
2022/07/23 02:31:41+0000,-36.43,-45.63,-35.65,-48.25,-54.32,-56.19
2022/07/23 02:32:33+0000,-36.75,-45.28,-36.00,-49.19,-54.03,-56.35
2022/07/23 02:33:25+0000,-37.14,-44.60,-35.94,-47.69,-54.34,-56.27
2022/07/23 02:34:17+0000,-35.89,-45.15,-35.77,-48.14,-53.81,-56.34
2022/07/23 02:35:09+0000,-36.45,-45.96,-35.55,-48.70,-54.06,-56.17
2022/07/23 02:36:02+0000,-37.41,-46.36,-34.93,-48.30,-54.01,-55.97
2022/07/23 02:36:54+0000,-36.51,-46.89,-35.64,-48.41,-54.44,-56.03
2022/07/23 02:37:46+0000,-37.90,-46.24,-36.20,-47.58,-53.63,-56.30
2022/07/23 02:38:38+0000,-36.55,-45.89,-36.20,-46.74,-54.12,-56.22
2022/07/23 02:39:30+0000,-36.69,-46.00,-35.82,-48.05,-53.81,-55.23
2022/07/23 02:40:22+0000,-35.82,-46.82,-35.48,-48.51,-53.63,-55.68
2022/07/23 02:41:20+0000,-36.40,-46.81,-35.56,-48.82,-54.68,-56.14
2022/07/23 02:42:12+0000,-36.72,-46.99,-35.40,-46.60,-53.59,-55.23
2022/07/23 02:43:04+0000,-36.85,-45.57,-35.39,-49.47,-54.11,-55.76
2022/07/23 02:43:56+0000,-36.29,-45.85,-35.55,-47.75,-53.76,-54.90
2022/07/23 02:44:48+0000,-37.45,-46.39,-36.01,-48.13,-53.32,-55.66
2022/07/23 02:45:40+0000,-37.28,-45.72,-35.22,-48.00,-53.99,-55.39
2022/07/23 02:46:32+0000,-37.38,-46.47,-35.38,-47.31,-54.84,-55.29
2022/07/23 02:47:24+0000,-36.78,-46.17,-35.89,-46.93,-53.07,-55.32
2022/07/23 02:48:16+0000,-37.08,-45.55,-35.28,-48.34,-53.95,-55.84
2022/07/23 02:49:08+0000,-37.55,-46.92,-34.95,-47.12,-53.70,-55.38
2022/07/23 02:50:01+0000,-36.82,-46.23,-34.99,-48.37,-53.13,-55.68
2022/07/23 02:51:00+0000,-36.82,-46.34,-35.77,-46.61,-53.31,-55.90
2022/07/23 02:51:52+0000,-37.64,-46.47,-35.11,-47.83,-54.11,-56.06
2022/07/23 02:52:45+0000,-36.91,-45.90,-35.08,-45.75,-53.88,-55.79
2022/07/23 02:53:37+0000,-36.53,-46.13,-35.13,-45.65,-53.63,-55.66
2022/07/23 02:54:29+0000,-36.75,-46.90,-35.29,-47.34,-54.40,-55.90
2022/07/23 02:55:21+0000,-36.71,-46.10,-35.35,-47.79,-54.01,-55.37
2022/07/23 02:56:13+0000,-36.38,-45.78,-35.56,-45.48,-53.99,-56.08
2022/07/23 02:57:05+0000,-37.03,-46.25,-35.48,-48.24,-53.91,-55.83
2022/07/23 02:57:57+0000,-37.04,-45.83,-35.94,-47.79,-54.17,-56.08
2022/07/23 02:58:49+0000,-37.41,-45.04,-35.55,-48.54,-53.92,-55.76
2022/07/23 02:59:41+0000,-37.23,-44.41,-35.57,-45.62,-53.86,-55.58
2022/07/23 03:00:33+0000,-37.10,-44.87,-35.55,-47.46,-53.76,-55.38
2022/07/23 03:01:37+0000,-35.65,-45.37,-35.71,-45.02,-53.31,-55.84
2022/07/23 03:02:29+0000,-35.45,-44.74,-35.83,-47.77,-53.91,-55.63
2022/07/23 03:03:21+0000,-36.72,-45.99,-35.86,-47.71,-53.84,-55.92
2022/07/23 03:04:13+0000,-36.37,-44.43,-35.59,-46.46,-54.04,-56.45
2022/07/23 03:05:05+0000,-36.33,-45.62,-35.76,-46.33,-53.44,-55.54
2022/07/23 03:05:57+0000,-36.09,-43.49,-35.31,-47.90,-54.31,-55.62
2022/07/23 03:06:49+0000,-36.75,-45.00,-34.85,-48.68,-54.45,-55.67
2022/07/23 03:07:41+0000,-36.77,-44.84,-34.55,-48.01,-54.47,-55.55
2022/07/23 03:08:33+0000,-37.09,-44.68,-35.42,-47.91,-54.62,-55.30
2022/07/23 03:09:25+0000,-37.14,-45.01,-35.18,-47.01,-55.12,-56.18
2022/07/23 03:10:17+0000,-36.37,-44.45,-34.93,-48.29,-55.03,-55.84
2022/07/23 03:11:17+0000,-36.81,-44.59,-35.18,-47.01,-54.82,-55.66
2022/07/23 03:12:09+0000,-36.32,-43.67,-35.88,-47.83,-55.56,-55.90
2022/07/23 03:13:01+0000,-36.67,-43.25,-34.94,-46.26,-55.65,-56.15
2022/07/23 03:13:53+0000,-36.06,-44.42,-35.18,-47.95,-54.77,-55.40
2022/07/23 03:14:45+0000,-36.73,-43.47,-35.28,-47.89,-54.90,-55.67
2022/07/23 03:15:37+0000,-36.52,-44.75,-35.16,-45.97,-54.89,-55.81
2022/07/23 03:16:29+0000,-36.40,-43.18,-35.55,-48.15,-55.74,-55.25
2022/07/23 03:17:21+0000,-36.74,-43.98,-34.07,-49.02,-54.09,-55.67
2022/07/23 03:18:13+0000,-36.77,-42.91,-35.15,-46.09,-55.02,-56.32
2022/07/23 03:19:05+0000,-37.62,-44.12,-35.13,-45.52,-54.72,-55.41
2022/07/23 03:19:57+0000,-36.49,-43.65,-35.42,-48.04,-55.19,-55.56
2022/07/23 03:20:49+0000,-36.50,-44.38,-35.04,-49.01,-54.97,-55.46
2022/07/23 03:21:51+0000,-35.92,-44.63,-34.72,-48.38,-55.15,-56.03
2022/07/23 03:22:43+0000,-36.54,-44.41,-35.46,-46.38,-55.35,-55.61
2022/07/23 03:23:35+0000,-37.02,-44.75,-34.77,-48.25,-55.49,-56.32
2022/07/23 03:24:27+0000,-35.83,-43.16,-35.08,-48.53,-55.76,-56.21
2022/07/23 03:25:19+0000,-36.09,-44.08,-35.30,-48.80,-55.28,-55.54
2022/07/23 03:26:11+0000,-36.37,-45.02,-34.86,-46.05,-55.11,-55.40
2022/07/23 03:27:03+0000,-37.00,-43.21,-34.69,-48.01,-55.57,-56.00
2022/07/23 03:27:55+0000,-35.84,-43.02,-35.37,-48.51,-55.22,-55.36
2022/07/23 03:28:47+0000,-36.27,-43.18,-35.23,-45.61,-55.03,-55.63
2022/07/23 03:29:39+0000,-36.31,-44.62,-35.45,-47.72,-55.34,-55.74
2022/07/23 03:30:31+0000,-35.62,-44.63,-35.16,-47.60,-54.69,-55.61
2022/07/23 03:31:31+0000,-35.91,-43.29,-34.92,-47.80,-54.85,-55.58
2022/07/23 03:32:23+0000,-36.38,-44.82,-35.45,-48.11,-54.61,-56.28
2022/07/23 03:33:15+0000,-36.38,-43.47,-35.20,-45.05,-54.57,-55.62
2022/07/23 03:34:07+0000,-35.92,-43.44,-35.08,-47.35,-55.11,-55.58
2022/07/23 03:34:59+0000,-36.94,-42.58,-35.36,-48.04,-54.65,-55.48
2022/07/23 03:35:51+0000,-36.41,-44.93,-35.14,-47.98,-55.32,-55.49
2022/07/23 03:36:43+0000,-34.67,-42.31,-35.73,-48.17,-54.80,-55.82
2022/07/23 03:37:35+0000,-36.73,-43.98,-35.79,-47.52,-54.48,-55.83
2022/07/23 03:38:27+0000,-35.73,-43.48,-35.53,-47.85,-55.11,-55.28
2022/07/23 03:39:19+0000,-36.24,-42.21,-35.42,-48.98,-54.56,-55.45
2022/07/23 03:40:12+0000,-36.07,-42.94,-35.51,-48.52,-55.42,-55.88
2022/07/23 03:41:13+0000,-36.17,-43.35,-35.76,-45.41,-55.16,-55.83
2022/07/23 03:42:05+0000,-35.39,-45.73,-35.51,-48.26,-55.92,-55.88
2022/07/23 03:42:57+0000,-36.04,-45.11,-35.27,-47.91,-55.29,-56.18
2022/07/23 03:43:49+0000,-36.01,-44.02,-35.60,-49.22,-55.58,-55.59
2022/07/23 03:44:41+0000,-35.65,-46.34,-34.80,-46.00,-55.98,-56.11
2022/07/23 03:45:33+0000,-35.10,-44.89,-35.30,-49.07,-55.76,-55.53
2022/07/23 03:46:25+0000,-34.41,-45.89,-35.66,-47.19,-55.01,-55.86
2022/07/23 03:47:17+0000,-37.12,-45.92,-35.05,-47.56,-55.90,-55.48
2022/07/23 03:48:09+0000,-36.10,-44.61,-35.06,-47.58,-55.37,-56.33
2022/07/23 03:49:01+0000,-36.17,-45.06,-35.72,-48.35,-55.05,-55.25
2022/07/23 03:49:53+0000,-35.74,-46.24,-35.42,-48.08,-55.70,-55.84
2022/07/23 03:50:45+0000,-35.65,-43.61,-35.11,-46.86,-55.75,-55.95
2022/07/23 03:51:45+0000,-36.05,-43.50,-35.31,-48.02,-55.15,-55.85
2022/07/23 03:52:37+0000,-35.71,-45.15,-35.08,-47.10,-55.40,-55.76
2022/07/23 03:53:29+0000,-35.96,-44.37,-35.49,-47.89,-55.42,-55.95
2022/07/23 03:54:21+0000,-35.17,-45.14,-35.22,-47.59,-55.30,-55.62
2022/07/23 03:55:13+0000,-36.24,-43.67,-35.26,-47.92,-55.70,-55.80
2022/07/23 03:56:05+0000,-35.56,-45.98,-35.41,-48.53,-55.38,-55.78
2022/07/23 03:56:57+0000,-35.86,-44.19,-35.19,-48.00,-55.16,-55.47
2022/07/23 03:57:49+0000,-36.25,-45.54,-35.91,-48.88,-55.35,-56.30
2022/07/23 03:58:41+0000,-35.44,-44.39,-35.34,-48.37,-55.98,-56.13
2022/07/23 03:59:33+0000,-35.46,-45.00,-35.21,-47.42,-55.50,-55.60
2022/07/23 04:00:25+0000,-36.17,-44.62,-35.29,-47.87,-55.14,-56.19
2022/07/23 04:01:25+0000,-35.47,-44.65,-34.78,-47.72,-55.30,-55.87
2022/07/23 04:02:18+0000,-35.67,-44.51,-35.65,-48.04,-55.11,-55.91
2022/07/23 04:03:10+0000,-34.94,-45.44,-35.69,-47.97,-55.74,-55.77
2022/07/23 04:04:02+0000,-35.03,-45.11,-34.98,-47.07,-56.11,-55.57
2022/07/23 04:04:54+0000,-35.45,-45.48,-35.78,-47.31,-55.72,-55.71
2022/07/23 04:05:46+0000,-35.41,-46.29,-35.20,-47.40,-55.45,-55.87
2022/07/23 04:06:38+0000,-36.16,-46.32,-36.07,-47.92,-55.84,-54.82
2022/07/23 04:07:30+0000,-22.55,-45.25,-35.17,-47.80,-55.40,-55.11
2022/07/23 04:08:22+0000,-35.64,-46.71,-35.44,-48.20,-55.39,-55.66
2022/07/23 04:09:14+0000,-36.34,-45.78,-34.82,-47.10,-55.56,-55.44
2022/07/23 04:10:06+0000,-35.29,-46.06,-35.32,-46.92,-55.49,-55.27
2022/07/23 04:11:05+0000,-35.48,-47.19,-35.42,-47.33,-55.40,-55.09
2022/07/23 04:11:57+0000,-34.72,-43.39,-35.92,-48.29,-55.87,-54.64
2022/07/23 04:12:49+0000,-35.90,-45.29,-35.24,-48.21,-55.65,-55.72
2022/07/23 04:13:41+0000,-34.76,-44.17,-34.83,-47.21,-55.53,-55.51
2022/07/23 04:14:33+0000,-35.92,-45.34,-34.76,-48.66,-55.84,-55.18
2022/07/23 04:15:25+0000,-35.69,-45.21,-35.45,-48.09,-56.49,-55.72
2022/07/23 04:16:17+0000,-35.01,-45.29,-35.69,-47.82,-55.24,-55.35
2022/07/23 04:17:09+0000,-35.16,-44.51,-34.86,-46.67,-55.84,-55.79
2022/07/23 04:18:01+0000,-34.79,-45.82,-34.58,-47.95,-55.66,-55.84
2022/07/23 04:18:53+0000,-35.71,-45.59,-34.56,-47.83,-55.40,-54.89
2022/07/23 04:19:46+0000,-35.91,-45.30,-35.01,-46.93,-54.91,-55.23
2022/07/23 04:20:38+0000,-35.90,-46.17,-34.42,-47.14,-55.54,-55.85
2022/07/23 04:21:39+0000,-35.04,-45.62,-34.74,-46.69,-55.03,-55.02
2022/07/23 04:22:31+0000,-36.32,-45.78,-34.76,-46.91,-55.37,-55.62
2022/07/23 04:23:23+0000,-34.15,-45.17,-34.73,-48.02,-55.71,-55.46
2022/07/23 04:24:15+0000,-36.92,-44.27,-34.38,-47.18,-55.42,-54.92
2022/07/23 04:25:07+0000,-36.52,-46.62,-34.59,-47.28,-55.38,-55.11
2022/07/23 04:25:59+0000,-35.96,-46.60,-34.82,-47.22,-55.48,-55.15
2022/07/23 04:26:51+0000,-35.52,-46.20,-34.73,-47.45,-55.33,-55.42
2022/07/23 04:27:43+0000,-35.65,-45.80,-35.18,-47.65,-55.26,-55.61
2022/07/23 04:28:35+0000,-34.91,-46.09,-34.67,-48.83,-55.77,-55.36
2022/07/23 04:29:27+0000,-36.15,-45.22,-34.41,-47.33,-55.77,-55.20
2022/07/23 04:30:19+0000,-36.02,-45.00,-35.31,-48.38,-55.72,-55.53
2022/07/23 04:31:19+0000,-35.50,-44.60,-34.73,-48.97,-55.54,-55.36
2022/07/23 04:32:11+0000,-35.65,-45.33,-35.39,-46.99,-55.50,-55.74
2022/07/23 04:33:03+0000,-36.61,-46.11,-35.80,-47.50,-56.31,-55.32
2022/07/23 04:33:55+0000,-37.42,-45.74,-34.96,-46.78,-55.49,-55.50
2022/07/23 04:34:47+0000,-34.76,-44.92,-34.99,-47.00,-55.55,-55.47
2022/07/23 04:35:39+0000,-33.84,-46.01,-34.96,-46.86,-55.64,-55.66
2022/07/23 04:36:31+0000,-36.71,-45.56,-34.86,-48.44,-55.33,-55.62
2022/07/23 04:37:23+0000,-35.95,-45.73,-34.93,-47.73,-55.35,-55.61
2022/07/23 04:38:15+0000,-34.56,-44.41,-35.51,-47.86,-55.15,-55.60
2022/07/23 04:39:07+0000,-35.47,-44.07,-35.39,-46.78,-54.98,-55.24
2022/07/23 04:39:59+0000,-37.26,-44.08,-34.89,-47.76,-55.22,-54.99
2022/07/23 04:40:51+0000,-36.91,-45.58,-34.62,-48.00,-54.53,-55.38
2022/07/23 04:41:50+0000,-36.80,-43.79,-34.84,-48.02,-54.12,-55.65
2022/07/23 04:42:42+0000,-36.61,-44.36,-35.21,-47.94,-49.49,-54.23
2022/07/23 04:43:34+0000,-35.98,-41.59,-34.63,-48.08,-53.42,-55.03
2022/07/23 04:44:26+0000,-34.90,-41.67,-35.05,-47.90,-54.65,-54.85
2022/07/23 04:45:18+0000,-34.50,-43.73,-34.84,-47.75,-54.36,-54.77
2022/07/23 04:46:10+0000,-36.03,-44.25,-34.76,-47.76,-53.99,-55.42